User: anonymous   Login
Location: Northam
(31.6525°S, 116.6655°E)
Time: 23:15:46
(UTC+08:00)
Language:

Explorer 11/Cluster Stage 4 - Orbit

View from above orbital plane
View from above orbital plane
View from above satellite
View from above satellite

Ground track
Ground track

The orbit data is extracted from the following two-line orbital elements,

1   107U 61013A   21172.59992779  .00000624  00000-0  61220-4 0  9996
2   107  28.7902 256.2397 0545523 236.2590 118.4841 14.09228263 17892
Epoch (UTC): 21 June 2021 14:23:53
Eccentricity: 0.0545523
inclination: 28.7902°
perigee height: 467 km
apogee height: 1257 km
right ascension of ascending node: 256.2397°
argument of perigee: 236.2590°
revolutions per day: 14.09228263
mean anomaly at epoch: 118.4841°
orbit number at epoch: 1789

The dashed part of the orbit path shows where the satellite is in the earth's shadow,  

DLR